[[{"header":{"parameterUnit":"m.s-1","parameterCategory":1,"la1":30.2991,"la2":30.254,"lo1":-89.0895,"lo2":-89.0444,"dy":0.0017,"dx":0.0017,"nx":28,"ny":28,"refTime":"2024-03-11T21:00:00:Z","depth":0,"parameterNumber":2,"parameterNumberName":"U-component_of_WINDS"},"data":[0,0,0,0,0,0,0,0,0,0,0,0,0,0,0,0,0,0,0,0,0,0,0,0,0,0,0,0,0,0,0,0,0,0,0,0,0,0,0,0,0,0,0,0,0,0,0,0,0,0,0,0,0,0,0,0,0,0,-2.0946,-2.0946,0,-2.0942,-2.0942,-2.0942,-2.087,-2.0868,-2.0866,-2.0864,-2.0864,-2.0865,-2.0867,0,0,0,0,0,0,0,0,0,0,0,0,0,-2.0893,-2.0895,-2.0946,-2.0946,-2.0946,-2.0942,-2.0942,-2.0942,-2.087,-2.0868,-2.0866,-2.0864,-2.0863,-2.0865,-2.0867,0,0,0,0,0,0,0,0,0,0,0,0,0,-2.0906,-2.0895,-2.0946,-2.0909,-2.0906,-2.0943,-2.0942,-2.0942,-2.0871,-2.0868,-2.0865,-2.0862,-2.0862,-2.0865,-2.0867,-2.094,0,0,-2.0875,-2.0876,0,0,0,0,0,0,0,0,-2.0905,-2.0908,-2.0915,-2.0912,-2.0908,-2.0904,-2.0924,-2.0942,-2.0871,-2.0884,-2.0864,-2.0861,-2.0879,-2.088,-2.0886,-2.0939,-2.0939,-2.0876,-2.0877,-2.0878,-2.0879,0,0,0,0,0,0,0,-2.0905,-2.0908,-2.0945,-2.0915,-2.0911,-2.0894,-2.0893,-2.0927,-2.0898,-2.0883,-2.0878,-2.0878,-2.0877,-2.0884,-2.0885,-2.0939,-2.0875,-2.0878,-2.0879,-2.088,-2.1054,-2.1057,0,0,0,0,0,0,-2.0908,-2.0907,-2.0945,-2.0944,-2.09,-2.0898,-2.0896,-2.0908,-2.0897,-2.0893,-2.088,-2.0875,-2.0881,-2.0883,-2.0885,-2.097,-2.0878,-2.0881,-2.0882,-2.1051,-2.1055,-2.1058,0,0,0,0,0,0,-2.0907,-2.0912,-2.0945,-2.0925,-2.0927,-2.0901,-2.0916,-2.0909,-2.0916,-2.0895,-2.089,-2.0892,-2.0879,-2.0882,-2.0927,-2.0969,-2.0882,-2.0884,-2.1047,-2.1052,-2.1056,-2.1139,0,0,0,0,0,0,-2.0906,-2.0912,-2.0938,-2.0926,-2.0929,-2.0986,-2.0918,-2.0911,-2.092,-2.0913,-2.0905,-2.0901,-2.0877,-2.0923,-2.0929,-2.0971,-2.0886,-2.1043,-2.1049,-2.1055,-2.1132,-2.1146,-2.1157,0,0,0,0,0,-2.0905,-2.0962,-2.094,-2.0945,-2.0961,-2.0988,-2.099,-2.096,-2.0924,-2.0951,-2.0938,-2.0901,-2.0963,-2.0929,-2.0935,-2.0977,-2.1041,-2.1048,-2.1054,-2.1127,-2.1143,-2.1157,0,0,0,0,0,0,-2.0981,-2.096,-2.0935,-2.099,-2.0991,-2.0976,-2.1008,-2.0978,-2.099,-2.0983,-2.0946,-2.0945,-2.0996,-2.0991,-2.0953,-2.1048,-2.0996,-2.1004,-2.1049,-2.1064,-2.1076,-2.1076,-2.0888,0,0,0,0,0,-2.1004,-2.1027,-2.1008,-2.1058,-2.106,-2.1034,-2.1045,-2.1022,-2.1022,-2.1023,-2.1013,-2.1016,-2.1036,-2.105,-2.1067,-2.1132,-2.113,-2.1164,-2.1177,-2.1187,-2.1195,-2.123,-2.1246,-2.1081,-2.108,-2.108,0,0,-2.1052,-2.1043,-2.106,-2.1073,-2.1071,-2.1097,-2.1035,-2.1065,-2.1084,-2.1027,-2.1069,-2.1063,-2.1063,-2.1119,-2.1143,-2.1117,-2.124,-2.1196,-2.1204,-2.1206,-2.1239,-2.1255,-2.1269,-2.1085,-2.1084,-2.1084,0,0,-2.1153,-2.1148,-2.119,-2.119,-2.1188,-2.1171,-2.1182,-2.1171,-2.1164,-2.1206,-2.1164,-2.1187,-2.1222,-2.1225,-2.1231,-2.1335,-2.1303,-2.1342,-2.1407,-2.1442,-2.1455,-2.1467,-2.1505,-2.1519,-2.135,-2.135,-2.135,0,-2.1213,-2.1249,-2.1216,-2.1248,-2.1256,-2.1206,-2.1249,-2.1251,-2.1255,-2.1262,-2.1233,-2.1277,-2.1274,-2.133,-2.1356,-2.1362,-2.1374,-2.1342,-2.1456,-2.1467,-2.1477,-2.1513,-2.1527,-2.1355,-2.1355,-2.1354,-2.1354,0,-2.1323,-2.135,-2.1384,-2.1389,-2.1401,-2.1439,-2.1412,-2.1428,-2.1405,-2.1392,-2.1436,-2.1431,-2.1447,-2.1459,-2.1436,-2.1513,-2.1496,-2.1462,-2.1409,-2.1498,-2.1531,-2.1545,-2.1362,-2.136,-2.1359,-2.1358,0,0,-2.147,-2.1458,-2.1471,-2.1474,-2.1469,-2.1489,-2.1526,-2.1541,-2.1556,-2.1562,-2.1592,-2.1624,-2.1593,-2.16,-2.1577,-2.1608,-2.1693,-2.157,-2.157,-2.1594,-2.1778,-2.1804,-2.182,-2.1672,-2.1674,-2.1676,-2.1778,0,-2.1568,-2.1628,-2.16,-2.1665,-2.1689,-2.1643,-2.1675,-2.1677,-2.1666,-2.1687,-2.1675,-2.1698,-2.1655,-2.1659,-2.1687,-2.1676,-2.1729,-2.1669,-2.1701,-2.1702,-2.1702,-2.1837,-2.1864,-2.1961,-2.1791,-2.1793,-2.1795,0,-2.1689,-2.17,-2.1766,-2.1759,-2.1768,-2.1797,-2.181,-2.1829,-2.1831,-2.1821,-2.183,-2.1802,-2.1839,-2.1787,-2.1839,-2.1798,-2.181,-2.1807,-2.181,-2.1812,-2.1754,-2.1843,-2.1991,-2.2006,-2.1815,-2.1813,-2.1812,0,-2.1791,-2.1821,-2.1865,-2.1869,-2.1861,-2.1883,-2.1881,-2.188,-2.1892,-2.1903,-2.1911,-2.1927,-2.1936,-2.195,-2.1928,-2.1892,-2.1983,-2.1929,-2.1977,-2.1978,-2.1998,-2.1997,-2.215,-2.2006,-2.2006,-2.2005,-2.2005,0,-2.1902,-2.1945,-2.1911,-2.1938,-2.1985,-2.1954,-2.2002,-2.1995,-2.1995,-2.2021,-2.1983,-2.2009,-2.1977,-2.2001,-2.1983,-2.2029,-2.2034,-2.2028,-2.2023,-2.2031,-2.2032,-2.2038,-2.2031,-2.2009,-2.2008,-2.2008,-2.2007,0,-2.2023,-2.2001,-2.2046,-2.2036,-2.2034,-2.207,-2.2061,-2.2087,-2.2074,-2.2108,-2.2114,-2.2095,-2.212,-2.2099,-2.2124,-2.2113,-2.2174,-2.216,-2.2173,-2.2169,-2.2219,-2.2215,-2.2381,-2.2402,-2.2245,-2.2246,-2.2247,0,-2.2095,-2.2127,-2.212,-2.2134,-2.2135,-2.2158,-2.217,-2.2142,-2.2156,-2.2161,-2.2187,-2.2209,-2.2225,-2.2269,-2.2258,-2.2277,-2.2263,-2.232,-2.2266,-2.2274,-2.2265,-2.2263,-2.2267,-2.2331,-2.2333,-2.2334,-2.2336,0,-2.2226,-2.2214,-2.2232,-2.2247,-2.2262,-2.2273,-2.228,-2.2295,-2.2266,-2.2284,-2.2309,-2.2322,-2.2348,-2.2371,-2.2388,-2.2387,-2.2358,-2.2353,-2.2365,-2.2374,-2.2381,-2.2379,-2.2204,-2.2349,-2.2348,-2.2347,-2.2346,-2.2346,-2.2325,-2.2351,-2.2351,-2.2373,-2.2376,-2.2384,-2.2408,-2.2399,-2.2419,-2.2437,-2.242,-2.2451,-2.2454,-2.2473,-2.2476,-2.2502,-2.2478,-2.2496,-2.25,-2.2505,-2.2512,-2.2377,-2.2504,-2.2504,-2.2504,-2.2503,-2.2503,0,-2.2454,-2.2452,-2.2472,-2.2484,-2.2502,-2.2472,-2.248,-2.2497,-2.2525,-2.253,-2.2547,-2.2577,-2.26,-2.2592,-2.2612,-2.2634,-2.2622,-2.2641,-2.2639,-2.264,-2.2532,-2.2519,-2.2651,-2.2651,-2.2651,-2.2651,-2.2651,-2.2651,-2.2523,-2.2567,-2.2556,-2.2602,-2.2599,-2.2629,-2.2636,-2.2645,-2.2649,-2.2684,-2.2703,-2.2697,-2.2697,-2.2718,-2.2739,-2.2736,-2.2745,-2.277,-2.2762,-2.2662,-2.2647,-2.2633,-2.2621,-2.2772,-2.2772,-2.2868,-2.2869,-2.287]},{"header":{"parameterUnit":"m.s-1","parameterCategory":1,"la1":30.2991,"la2":30.254,"lo1":-89.0895,"lo2":-89.0444,"dy":0.0017,"dx":0.0017,"nx":28,"ny":28,"refTime":"2024-03-11T21:00:00:Z","depth":0,"parameterNumber":3,"parameterNumberName":"V-component_of_WINDS"},"data":[0,0,0,0,0,0,0,0,0,0,0,0,0,0,0,0,0,0,0,0,0,0,0,0,0,0,0,0,0,0,0,0,0,0,0,0,0,0,0,0,0,0,0,0,0,0,0,0,0,0,0,0,0,0,0,0,0,0,1.4587,1.4587,0,1.4571,1.457,1.457,1.4617,1.4618,1.462,1.4621,1.4601,1.4599,1.4597,0,0,0,0,0,0,0,0,0,0,0,0,0,1.4656,1.4654,1.4587,1.4587,1.4586,1.4571,1.457,1.457,1.4617,1.4618,1.462,1.4622,1.4601,1.4599,1.4597,0,0,0,0,0,0,0,0,0,0,0,0,0,1.4631,1.4654,1.4587,1.4608,1.4609,1.4571,1.457,1.457,1.4616,1.4618,1.4621,1.4623,1.4602,1.4599,1.4597,1.4536,0,0,1.4588,1.4587,0,0,0,0,0,0,0,0,1.4632,1.4628,1.4605,1.4606,1.4608,1.4598,1.4587,1.4558,1.4616,1.4613,1.4621,1.4624,1.4598,1.4595,1.4588,1.4535,1.4534,1.4588,1.4586,1.4585,1.4584,0,0,0,0,0,0,0,1.4634,1.4629,1.458,1.4604,1.4606,1.4617,1.4616,1.4582,1.4593,1.4614,1.4617,1.4615,1.4599,1.459,1.4587,1.4533,1.4588,1.4585,1.4583,1.4582,1.443,1.4427,0,0,0,0,0,0,1.4633,1.4631,1.4581,1.458,1.4626,1.4614,1.4613,1.4599,1.4594,1.4595,1.4613,1.4617,1.4594,1.4591,1.4587,1.4514,1.4585,1.4582,1.458,1.4432,1.4429,1.4427,0,0,0,0,0,0,1.4635,1.4629,1.4581,1.4606,1.4601,1.4611,1.4595,1.4597,1.4589,1.4594,1.4595,1.4602,1.4596,1.4591,1.4548,1.4514,1.4581,1.4578,1.4435,1.4431,1.4428,1.4369,0,0,0,0,0,0,1.4637,1.4629,1.4606,1.4605,1.4599,1.4543,1.4593,1.4596,1.4584,1.4589,1.4584,1.4585,1.4597,1.4552,1.4545,1.4512,1.4576,1.4438,1.4433,1.4429,1.4374,1.4364,1.4356,0,0,0,0,0,1.4639,1.4589,1.4605,1.4598,1.4571,1.4541,1.4538,1.4554,1.4581,1.4558,1.4561,1.4585,1.452,1.4547,1.454,1.4505,1.444,1.4434,1.4429,1.4378,1.4366,1.4356,0,0,0,0,0,0,1.4584,1.459,1.4606,1.4556,1.4548,1.4549,1.452,1.4541,1.4524,1.4529,1.4549,1.4548,1.4501,1.4499,1.453,1.4446,1.4484,1.4477,1.4448,1.4437,1.4428,1.4428,1.4574,0,0,0,0,0,1.4567,1.4543,1.4549,1.4503,1.4499,1.451,1.4498,1.4511,1.4503,1.45,1.45,1.4491,1.4468,1.4453,1.4433,1.4375,1.4374,1.4348,1.4339,1.4331,1.4324,1.4293,1.4281,1.4409,1.4409,1.4409,0,0,1.4529,1.4529,1.4513,1.4492,1.4488,1.4462,1.4507,1.4477,1.4458,1.4495,1.4455,1.4455,1.4446,1.4395,1.4373,1.4392,1.4289,1.4324,1.4318,1.4315,1.4286,1.4274,1.4263,1.4406,1.4406,1.4407,0,0,1.4447,1.4446,1.4408,1.4403,1.4396,1.4405,1.4395,1.4394,1.4396,1.4356,1.4384,1.4361,1.4322,1.4314,1.4305,1.4223,1.4243,1.4215,1.4166,1.4135,1.4125,1.4116,1.4085,1.4074,1.4209,1.4209,1.4209,0,1.4401,1.4364,1.4385,1.4354,1.4343,1.4378,1.4339,1.4333,1.4319,1.4311,1.4334,1.4286,1.4282,1.423,1.421,1.4203,1.4192,1.4215,1.4125,1.4116,1.4108,1.4079,1.4067,1.4205,1.4206,1.4206,1.4206,0,1.4307,1.4281,1.425,1.4238,1.4225,1.4189,1.4204,1.4188,1.4204,1.4209,1.4169,1.4166,1.4146,1.4135,1.4149,1.4085,1.4097,1.4122,1.4161,1.4092,1.4065,1.4054,1.42,1.4202,1.4203,1.4203,0,0,1.4187,1.4189,1.4177,1.4172,1.4168,1.4147,1.4114,1.4096,1.4081,1.4071,1.4042,1.401,1.4033,1.4023,1.4037,1.4011,1.3944,1.4039,1.4039,1.402,1.3872,1.3851,1.3838,1.3959,1.3957,1.3955,1.3872,0,1.4105,1.4049,1.4068,1.401,1.3985,1.4019,1.399,1.3984,1.3989,1.3968,1.3974,1.395,1.3984,1.3978,1.3953,1.3957,1.3914,1.3964,1.3931,1.3929,1.3929,1.3824,1.3802,1.3724,1.3862,1.386,1.3859,0,1.4002,1.3989,1.3929,1.393,1.392,1.3893,1.3878,1.3859,1.3853,1.3859,1.3848,1.3868,1.3834,1.3875,1.3829,1.3862,1.385,1.385,1.3848,1.3843,1.3888,1.3814,1.3699,1.3686,1.3842,1.3844,1.3845,0,1.3918,1.3886,1.3846,1.3841,1.3841,1.3822,1.3821,1.3817,1.3805,1.3792,1.3784,1.3767,1.3757,1.3743,1.3757,1.3786,1.3708,1.375,1.371,1.3709,1.369,1.369,1.3568,1.3686,1.3686,1.3686,1.3686,0,1.3823,1.3785,1.3809,1.3784,1.3742,1.3764,1.3721,1.3724,1.3721,1.3697,1.3725,1.3702,1.3723,1.3701,1.3713,1.3672,1.3667,1.367,1.3673,1.3666,1.3665,1.3656,1.3661,1.3683,1.3684,1.3684,1.3685,0,1.3722,1.3737,1.3695,1.3699,1.37,1.3668,1.3672,1.3648,1.3657,1.3626,1.362,1.3632,1.3608,1.3622,1.3597,1.3604,1.3551,1.3562,1.3552,1.3555,1.3513,1.3516,1.3379,1.3362,1.3493,1.3491,1.349,0,1.3659,1.363,1.3632,1.3619,1.3616,1.3594,1.3582,1.3603,1.359,1.3582,1.3559,1.3538,1.3522,1.3481,1.3487,1.3468,1.3478,1.3432,1.3475,1.3469,1.3475,1.3476,1.3473,1.3422,1.3421,1.3419,1.3418,0,1.3545,1.3555,1.3537,1.3522,1.3507,1.3496,1.3488,1.3475,1.3496,1.348,1.3456,1.3444,1.3419,1.3397,1.3381,1.3379,1.3401,1.3405,1.3395,1.3386,1.3381,1.3381,1.3526,1.3407,1.3408,1.3409,1.341,1.341,1.346,1.3436,1.3434,1.3413,1.3409,1.3401,1.3379,1.3386,1.3367,1.3349,1.3363,1.3335,1.333,1.3311,1.3307,1.3285,1.3303,1.3288,1.3284,1.3279,1.3273,1.3387,1.3282,1.3282,1.3283,1.3283,1.3283,0,1.3346,1.3347,1.3328,1.3316,1.3299,1.3325,1.3317,1.3301,1.3276,1.3271,1.3255,1.3228,1.3207,1.3212,1.3194,1.3174,1.3184,1.3169,1.3169,1.3168,1.3258,1.3268,1.3161,1.3161,1.3161,1.3161,1.3161,1.3161,1.3285,1.3245,1.3254,1.3213,1.3215,1.3188,1.3181,1.3173,1.3169,1.3137,1.3121,1.3125,1.3124,1.3106,1.3088,1.309,1.308,1.3061,1.3066,1.315,1.3162,1.3173,1.3183,1.3059,1.3059,1.2978,1.2977,1.2976]}]]